Location: Peach Mountain Observatory
(42.3967°N, 83.9367°W)
Time: 07:01:56
(UTC-05:00)

Transit 4A - Pass Details

Date: 25 January 2020
Orbit: 872 x 973 km, 66.8° (Epoch: 19 February)

Event Time Altitude Azimuth Distance (km) Brightness Sun altitude
Rises 06:11:33 0° 185° (S) 3,558 11.0 -19.3°
Reaches altitude 10° 06:14:15 10° 177° (S) 2,603 10.4 -18.8°
Maximum altitude 06:19:45 38° 111° (ESE) 1,347 9.3 -17.8°
Drops below altitude 10° 06:25:09 10° 45° (NE) 2,559 10.7 -16.8°
Sets 06:27:46 0° 38° (NE) 3,491 11.3 -16.3°
